Whiteman AFB, MO

4:10 PM CDT on March 30, 2017 (GMT -0500)
Whiteman Air Force Base

Weather History for KSZL - April, 2014

Change the Weather History Date:

Wednesday, April 9, 2014

  Actual Average Record
Temperature  
Mean Temperature 52 °F -  
Max Temperature 71 °F 62 °F 87 °F (2011)
Min Temperature 32 °F 42 °F 19 °F (1997)
Degree Days  
Heating Degree Days 14    
Growing Degree Days 2 (Base 50)    
Moisture  
Dew Point 28 °F    
Average Humidity 41    
Maximum Humidity 80    
Minimum Humidity 23    
Precipitation  
Precipitation 0.00 in - - ()
Sea Level Pressure  
Sea Level Pressure 30.01 in    
Wind  
Wind Speed 8 mph (SSW)    
Max Wind Speed 22 mph    
Max Gust Speed 26 mph    
Visibility 10 miles    
Events      
Averages and records for this station are not official NWS values.
T = Trace of Precipitation, MM = Missing Value Source: NWS Daily Summary

Daily Weather History Graph

Daily Weather History Graph

Search for Another Location

Airport or City:

Trip Planner

Search our weather history database for the weather conditions in past years. The results will help you decide how hot, cold, wet, or windy it might be!

Date:

Astronomy

Apr. 09, 2014 Rise Set
Actual Time 6:46 AM CDT 7:45 PM CDT
Civil Twilight 6:19 AM CDT 8:12 PM CDT
Nautical Twilight 5:47 AM CDT 8:44 PM CDT
Astronomical Twilight 5:13 AM CDT 9:18 PM CDT
Moon 2:37 PM CDT (4/9) 3:32 AM CDT (4/9)
Length of Visible Light 13h 52m
Length of Day
12h 58m
Waxing Gibbous, 72% of the Moon is Illuminated
Apr 9
Waxing Gibbous
Apr 15
Full
Apr 22
Last Quarter
Apr 29
New
May 6
First Quarter

Hourly Weather History & Observations

Time (CDT) Temp. Windchill Dew Point Humidity Pressure Visibility Wind Dir Wind Speed Gust Speed Precip Events Conditions
12:58 AM 43.3 °F 41.7 °F 25.9 °F 50% 30.11 in 10.0 mi West 3.5 mph - N/A   Clear
1:58 AM 43.2 °F - 25.2 °F 49% 30.09 in 10.0 mi WSW 2.3 mph - N/A   Clear
2:58 AM 38.5 °F 36.1 °F 26.8 °F 63% 30.10 in 10.0 mi SSW 3.5 mph - N/A   Clear
3:58 AM 35.8 °F - 27.0 °F 70% 30.09 in 10.0 mi South 1.2 mph - N/A   Clear
4:58 AM 35.1 °F 32.2 °F 27.0 °F 72% 30.10 in 10.0 mi SSW 3.5 mph - N/A   Clear
5:58 AM 32.9 °F 28.5 °F 26.2 °F 76% 30.11 in 10.0 mi SSW 4.6 mph - N/A   Clear
6:58 AM 32.0 °F 28.7 °F 26.6 °F 80% 30.13 in 10.0 mi SSW 3.5 mph - N/A   Partly Cloudy
7:58 AM 37.0 °F 34.5 °F 30.2 °F 76% 30.15 in 10.0 mi SW 3.5 mph - N/A   Partly Cloudy
8:58 AM 47.8 °F - 27.7 °F 46% 30.14 in 10.0 mi SW 5.8 mph - N/A   Partly Cloudy
9:58 AM 55.0 °F - 26.1 °F 33% 30.13 in 10.0 mi WSW 11.5 mph - N/A   Clear
10:58 AM 59.2 °F - 23.4 °F 25% 30.12 in 10.0 mi WSW 13.8 mph - N/A   Clear
11:58 AM 61.9 °F - 26.1 °F 26% 30.10 in 10.0 mi SW 17.3 mph 21.9 mph N/A   Clear
12:58 PM 63.9 °F - 28.2 °F 26% 30.06 in 10.0 mi SW 18.4 mph 21.9 mph N/A   Clear
1:13 PM 64.4 °F - 26.6 °F 24% 30.04 in 10.0 mi South 16.1 mph 21.9 mph N/A   Clear
1:58 PM 66.0 °F - 29.5 °F 25% 30.02 in 10.0 mi SSW 16.1 mph - N/A   Clear
2:58 PM 68.7 °F - 32.2 °F 26% 29.98 in 10.0 mi South 21.9 mph - N/A   Clear
3:58 PM 69.8 °F - 32.5 °F 25% 29.93 in 10.0 mi SSW 17.3 mph - N/A   Clear
4:58 PM 71.1 °F - 31.5 °F 23% 29.91 in 10.0 mi SSW 18.4 mph - N/A   Clear
5:58 PM 70.2 °F - 30.9 °F 23% 29.90 in 10.0 mi SSW 18.4 mph 26.5 mph N/A   Clear
6:58 PM 66.6 °F - 28.2 °F 24% 29.89 in 10.0 mi SSW 15.0 mph - N/A   Clear
7:58 PM 60.6 °F - 29.8 °F 31% 29.87 in 10.0 mi South 9.2 mph - N/A   Clear
8:58 PM 60.1 °F - 30.6 °F 33% 29.87 in 10.0 mi South 9.2 mph - N/A   Clear
9:58 PM 57.9 °F - 31.3 °F 36% 29.87 in 10.0 mi South 9.2 mph - N/A   Clear
10:58 PM 58.8 °F - 30.7 °F 35% 29.84 in 10.0 mi South 13.8 mph - N/A   Clear
11:58 PM 59.9 °F - 29.5 °F 32% 29.81 in 10.0 mi South 18.4 mph - N/A   Clear